| time (UTC) | temp F | wind direction | speed MPH | gust MPH | rain 1hr in | rain 24hr in | rain mn in | humidity % | barometer mb |
| 20260510090334 | 50 | 131 | 0.0 | 7.0 | 0.00 | 0.57 | 0.02 | 97 | 1010.0 |
| 20260510090326 | 50 | 139 | 4.0 | 9.0 | 0.00 | 0.43 | 0.01 | 89 | 1011.2 |
| 20260510084850 | 50 | 90 | 5.0 | 9.0 | 0.00 | 0.43 | 0.01 | 89 | 1011.4 |
| 20260510084826 | 50 | 275 | 2.0 | 5.0 | 0.00 | 0.57 | 0.02 | 97 | 1010.1 |
| 20260510083359 | 50 | 130 | 2.0 | 8.0 | 0.00 | 0.43 | 0.01 | 89 | 1011.8 |
| 20260510083329 | 50 | 126 | 1.0 | 2.0 | 0.00 | 0.57 | 0.02 | 97 | 1010.4 |
| 20260510081913 | 50 | 244 | 1.0 | 2.0 | 0.00 | 0.57 | 0.02 | 97 | 1010.7 |
| 20260510081852 | 50 | 141 | 4.0 | 7.0 | 0.00 | 0.43 | 0.01 | 89 | 1011.9 |
| 20260510080420 | 50 | 273 | 1.0 | 2.0 | 0.00 | 0.57 | 0.02 | 97 | 1010.6 |
| 20260510080354 | 50 | 114 | 3.0 | 8.0 | 0.00 | 0.43 | 0.01 | 89 | 1011.8 |
| 20260510074920 | 50 | 149 | 3.0 | 10.0 | 0.00 | 0.43 | 0.01 | 89 | 1011.8 |
| 20260510074834 | 50 | 121 | 1.0 | 2.0 | 0.00 | 0.57 | 0.02 | 98 | 1010.5 |
| 20260510073412 | 50 | 161 | 1.0 | 7.0 | 0.00 | 0.43 | 0.01 | 89 | 1011.8 |
| 20260510073329 | 50 | 161 | 1.0 | 7.0 | 0.00 | 0.43 | 0.01 | 89 | 1011.8 |
| 20260510071923 | 50 | 126 | 3.0 | 8.0 | 0.00 | 0.43 | 0.01 | 89 | 1011.6 |
| 20260510071840 | 50 | 126 | 3.0 | 8.0 | 0.00 | 0.43 | 0.01 | 89 | 1011.6 |
| 20260510071831 | 50 | 123 | 1.0 | 4.0 | 0.00 | 0.57 | 0.02 | 97 | 1010.2 |
| 20260510070430 | 50 | 94 | 4.0 | 7.0 | 0.00 | 0.43 | 0.01 | 89 | 1011.5 |
| 20260510070353 | 51 | 118 | 3.0 | 6.0 | 0.00 | 0.57 | 0.02 | 97 | 1010.2 |
| 20260510064929 | 50 | 112 | 1.0 | 4.0 | 0.00 | 0.43 | 0.01 | 89 | 1011.6 |
| 20260510064919 | 51 | 284 | 0.0 | 7.0 | 0.00 | 0.57 | 0.02 | 97 | 1010.2 |
| 20260510064825 | 50 | 112 | 1.0 | 4.0 | 0.00 | 0.43 | 0.01 | 89 | 1011.6 |
| 20260510063425 | 50 | 121 | 3.0 | 3.0 | 0.00 | 0.43 | 0.01 | 89 | 1011.6 |
| 20260510063314 | 51 | 317 | 1.0 | 2.0 | 0.01 | 0.57 | 0.02 | 97 | 1010.2 |
| 20260510061905 | 50 | 129 | 1.0 | 4.0 | 0.00 | 0.43 | 0.01 | 89 | 1011.6 |
| 20260510061813 | 51 | 171 | 0.0 | 8.0 | 0.01 | 0.57 | 0.02 | 98 | 1010.1 |
| 20260510060418 | 50 | 151 | 2.0 | 3.0 | 0.01 | 0.57 | 0.02 | 97 | 1010.4 |
| 20260510060350 | 50 | 109 | 2.0 | 4.0 | 0.00 | 0.43 | 0.01 | 89 | 1011.8 |
| 20260510054837 | 50 | 108 | 2.0 | 3.0 | 0.00 | 0.43 | 0.01 | 90 | 1011.6 |
| 20260510054834 | 50 | 148 | 0.0 | 0.0 | 0.01 | 0.57 | 0.02 | 97 | 1010.2 |
| 20260510053400 | 50 | 148 | 0.0 | 1.0 | 0.00 | 0.56 | 0.01 | 97 | 1010.6 |
| 20260510053356 | 48 | 87 | 2.0 | 3.0 | 0.00 | 0.43 | 0.01 | 89 | 1011.8 |
| 20260510051911 | 49 | 221 | 0.0 | 0.0 | 0.00 | 0.43 | 0.01 | 89 | 1011.9 |
| 20260510051814 | 50 | 148 | 1.0 | 4.0 | 0.01 | 0.56 | 0.01 | 97 | 1010.4 |
| 20260510050414 | 50 | 197 | 0.0 | 2.0 | 0.00 | 0.43 | 0.01 | 89 | 1011.8 |
| 20260510050313 | 51 | 143 | 5.0 | 7.0 | 0.01 | 0.56 | 0.01 | 97 | 1010.2 |
| 20260510044827 | 51 | 152 | 3.0 | 5.0 | 0.01 | 0.56 | 0.01 | 97 | 1010.5 |
| 20260510043336 | 49 | 158 | 3.0 | 6.0 | 0.01 | 0.43 | 0.01 | 89 | 1012.0 |
| 20260510043330 | 50 | 146 | 2.0 | 3.0 | 0.01 | 0.56 | 0.01 | 97 | 1010.6 |
| 20260510041844 | 50 | 224 | 0.0 | 5.0 | 0.00 | 0.55 | 0.55 | 97 | 1010.6 |
| 20260510041837 | 48 | 66 | 3.0 | 4.0 | 0.01 | 0.43 | 0.01 | 89 | 1012.1 |
| 20260510040407 | 50 | 117 | 0.0 | 2.0 | 0.00 | 0.55 | 0.55 | 96 | 1010.7 |
| 20260510040341 | 48 | 168 | 0.0 | 0.0 | 0.01 | 0.43 | 0.01 | 89 | 1012.2 |
| 20260510034913 | 48 | 168 | 0.0 | 0.0 | 0.00 | 0.42 | 0.42 | 89 | 1012.2 |
| 20260510034850 | 50 | 193 | 0.0 | 5.0 | 0.00 | 0.55 | 0.55 | 96 | 1010.7 |
| 20260510033336 | 48 | 212 | 0.0 | 1.0 | 0.00 | 0.42 | 0.42 | 88 | 1012.2 |
| 20260510033327 | 51 | 173 | 0.0 | 7.0 | 0.00 | 0.55 | 0.55 | 96 | 1010.7 |
| 20260510031840 | 49 | 161 | 0.0 | 2.0 | 0.00 | 0.42 | 0.42 | 89 | 1012.0 |
| 20260510031831 | 51 | 153 | 5.0 | 7.0 | 0.00 | 0.55 | 0.55 | 96 | 1010.6 |
| 20260510030333 | 51 | 150 | 6.0 | 8.0 | 0.00 | 0.55 | 0.55 | 96 | 1010.6 |
| 20260510030328 | 49 | 118 | 1.0 | 5.0 | 0.00 | 0.42 | 0.42 | 89 | 1012.1 |
| 20260510024919 | 49 | 87 | 3.0 | 6.0 | 0.00 | 0.42 | 0.42 | 89 | 1012.1 |
| 20260510024837 | 49 | 87 | 3.0 | 6.0 | 0.00 | 0.42 | 0.42 | 89 | 1012.1 |
| 20260510024831 | 51 | 154 | 4.0 | 6.0 | 0.00 | 0.55 | 0.55 | 96 | 1010.7 |
| 20260510023326 | 49 | 89 | 2.0 | 7.0 | 0.00 | 0.42 | 0.42 | 89 | 1012.3 |
| 20260510023314 | 50 | 153 | 5.0 | 8.0 | 0.00 | 0.55 | 0.55 | 96 | 1010.9 |
| 20260510021846 | 49 | 141 | 0.0 | 4.0 | 0.00 | 0.42 | 0.42 | 89 | 1012.5 |
| 20260510021836 | 51 | 120 | 2.0 | 9.0 | 0.00 | 0.55 | 0.55 | 96 | 1011.1 |
| 20260510020337 | 51 | 150 | 6.0 | 12.0 | 0.01 | 0.55 | 0.55 | 97 | 1011.2 |
| 20260510020332 | 48 | 143 | 0.0 | 2.0 | 0.00 | 0.42 | 0.42 | 89 | 1012.6 |
| 20260510014837 | 50 | 155 | 1.0 | 3.0 | 0.01 | 0.55 | 0.55 | 97 | 1011.3 |
| 20260510014832 | 47 | 101 | 0.0 | 0.0 | 0.00 | 0.42 | 0.42 | 89 | 1012.6 |
| 20260510013419 | 47 | 101 | 0.0 | 2.0 | 0.00 | 0.42 | 0.42 | 89 | 1012.5 |
| 20260510013338 | 50 | 263 | 1.0 | 7.0 | 0.01 | 0.55 | 0.55 | 97 | 1011.2 |
| 20260510011838 | 50 | 129 | 2.0 | 4.0 | 0.01 | 0.55 | 0.55 | 97 | 1011.1 |
| 20260510011829 | 47 | 101 | 0.0 | 0.0 | 0.00 | 0.42 | 0.42 | 89 | 1012.6 |
| 20260510010329 | 47 | 101 | 0.0 | 3.0 | 0.00 | 0.42 | 0.42 | 89 | 1012.4 |
| 20260510010322 | 49 | 86 | 0.0 | 1.0 | 0.01 | 0.54 | 0.54 | 96 | 1011.1 |
| 20260510004842 | 50 | 88 | 0.0 | 4.0 | 0.01 | 0.54 | 0.54 | 95 | 1010.8 |
| 20260510004838 | 47 | 122 | 0.0 | 1.0 | 0.00 | 0.42 | 0.42 | 89 | 1012.3 |
| 20260510003404 | 47 | 122 | 0.0 | 2.0 | 0.00 | 0.42 | 0.42 | 89 | 1012.2 |
| 20260510003338 | 50 | 155 | 3.0 | 6.0 | 0.02 | 0.54 | 0.54 | 96 | 1010.8 |
| 20260510001933 | 47 | 122 | 0.0 | 2.0 | 0.00 | 0.42 | 0.42 | 89 | 1012.0 |
| 20260510001847 | 50 | 138 | 4.0 | 7.0 | 0.02 | 0.54 | 0.54 | 96 | 1010.5 |
| 20260510000344 | 50 | 149 | 4.0 | 7.0 | 0.02 | 0.53 | 0.53 | 96 | 1010.4 |
| 20260510000334 | 47 | 247 | 0.0 | 4.0 | 0.00 | 0.42 | 0.42 | 89 | 1011.9 |
| 20260509234837 | 47 | 274 | 0.0 | 0.0 | 0.00 | 0.42 | 0.42 | 89 | 1011.9 |
| 20260509234824 | 50 | 138 | 5.0 | 8.0 | 0.03 | 0.53 | 0.53 | 97 | 1010.4 |
| 20260509233407 | 50 | 213 | 0.0 | 6.0 | 0.02 | 0.52 | 0.52 | 96 | 1010.4 |
| 20260509233327 | 47 | 182 | 0.0 | 2.0 | 0.00 | 0.42 | 0.42 | 89 | 1011.8 |
| 20260509231831 | 47 | 197 | 0.0 | 3.0 | 0.00 | 0.42 | 0.42 | 89 | 1011.8 |
| 20260509231827 | 50 | 134 | 1.0 | 4.0 | 0.03 | 0.52 | 0.52 | 97 | 1010.4 |
| 20260509230424 | 47 | 3 | 0.0 | 2.0 | 0.00 | 0.42 | 0.42 | 89 | 1011.9 |
| 20260509230328 | 50 | 113 | 0.0 | 1.0 | 0.03 | 0.51 | 0.51 | 96 | 1010.5 |
| 20260509224932 | 47 | 12 | 0.0 | 3.0 | 0.00 | 0.42 | 0.42 | 89 | 1012.0 |
| 20260509224845 | 49 | 197 | 0.0 | 1.0 | 0.03 | 0.50 | 0.50 | 96 | 1010.5 |
| 20260509223354 | 47 | 327 | 2.0 | 3.0 | 0.00 | 0.42 | 0.42 | 89 | 1011.8 |
| 20260509223326 | 49 | 150 | 1.0 | 6.0 | 0.04 | 0.50 | 0.50 | 96 | 1010.3 |
| 20260509221841 | 46 | 293 | 0.0 | 1.0 | 0.00 | 0.42 | 0.42 | 89 | 1011.6 |
| 20260509221826 | 49 | 115 | 2.0 | 4.0 | 0.04 | 0.49 | 0.49 | 96 | 1010.4 |
| 20260509220408 | 46 | 293 | 0.0 | 2.0 | 0.00 | 0.42 | 0.42 | 88 | 1011.8 |
| 20260509220315 | 49 | 137 | 2.0 | 5.0 | 0.04 | 0.48 | 0.48 | 96 | 1010.4 |
| 20260509214858 | 49 | 135 | 1.0 | 3.0 | 0.05 | 0.47 | 0.47 | 96 | 1010.4 |
| 20260509214852 | 46 | 292 | 0.0 | 0.0 | 0.01 | 0.42 | 0.42 | 89 | 1011.8 |
| 20260509213336 | 48 | 151 | 3.0 | 5.0 | 0.05 | 0.46 | 0.46 | 96 | 1010.5 |
| 20260509213329 | 46 | 260 | 1.0 | 4.0 | 0.02 | 0.42 | 0.42 | 89 | 1012.0 |
| 20260509211919 | 46 | 257 | 3.0 | 6.0 | 0.04 | 0.42 | 0.42 | 89 | 1012.3 |
| 20260509211833 | 48 | 168 | 3.0 | 9.0 | 0.05 | 0.45 | 0.45 | 95 | 1010.8 |
| 20260509210358 | 48 | 153 | 2.0 | 7.0 | 0.06 | 0.44 | 0.44 | 96 | 1011.0 |
| 20260509210340 | 46 | 253 | 0.0 | 3.0 | 0.05 | 0.42 | 0.42 | 88 | 1012.5 |
| 20260509204915 | 48 | 209 | 1.0 | 8.0 | 0.05 | 0.42 | 0.42 | 96 | 1011.1 |
| 20260509204909 | 46 | 137 | 0.0 | 3.0 | 0.06 | 0.41 | 0.41 | 88 | 1012.6 |
| 20260509203338 | 48 | 147 | 4.0 | 6.0 | 0.05 | 0.41 | 0.41 | 96 | 1011.1 |
| 20260509203331 | 46 | 247 | 2.0 | 4.0 | 0.07 | 0.40 | 0.40 | 88 | 1012.7 |
| 20260509201902 | 46 | 240 | 2.0 | 3.0 | 0.06 | 0.38 | 0.38 | 88 | 1012.6 |
| 20260509201900 | 48 | 141 | 3.0 | 4.0 | 0.06 | 0.40 | 0.40 | 95 | 1011.2 |
| 20260509200426 | 48 | 160 | 3.0 | 5.0 | 0.05 | 0.38 | 0.38 | 96 | 1011.2 |
| 20260509200411 | 46 | 245 | 1.0 | 3.0 | 0.07 | 0.37 | 0.37 | 88 | 1012.8 |
| 20260509194910 | 45 | 264 | 0.0 | 2.0 | 0.05 | 0.34 | 0.34 | 88 | 1012.8 |
| 20260509194905 | 47 | 139 | 3.0 | 4.0 | 0.06 | 0.37 | 0.37 | 95 | 1011.4 |
| 20260509193332 | 45 | 303 | 0.0 | 0.0 | 0.06 | 0.33 | 0.33 | 88 | 1012.8 |
| 20260509193323 | 47 | 142 | 3.0 | 6.0 | 0.05 | 0.35 | 0.35 | 95 | 1011.4 |
| 20260509191835 | 45 | 303 | 0.0 | 0.0 | 0.06 | 0.32 | 0.32 | 88 | 1013.1 |
| 20260509191819 | 47 | 146 | 1.0 | 3.0 | 0.05 | 0.34 | 0.34 | 95 | 1011.7 |
| 20260509190352 | 45 | 303 | 0.0 | 0.0 | 0.05 | 0.30 | 0.30 | 88 | 1013.2 |
| 20260509190342 | 47 | 113 | 0.0 | 2.0 | 0.06 | 0.33 | 0.33 | 95 | 1011.7 |
| 20260509184847 | 44 | 303 | 0.0 | 2.0 | 0.06 | 0.29 | 0.29 | 88 | 1013.4 |
| 20260509184845 | 47 | 159 | 2.0 | 3.0 | 0.05 | 0.31 | 0.31 | 94 | 1011.7 |
| 20260509183407 | 47 | 126 | 2.0 | 4.0 | 0.06 | 0.30 | 0.30 | 95 | 1011.8 |
| 20260509183353 | 44 | 260 | 0.0 | 1.0 | 0.06 | 0.27 | 0.27 | 88 | 1013.4 |
| 20260509181833 | 44 | 260 | 0.0 | 2.0 | 0.06 | 0.26 | 0.26 | 88 | 1013.4 |
| 20260509181825 | 46 | 135 | 3.0 | 7.0 | 0.06 | 0.29 | 0.29 | 94 | 1011.9 |
| 20260509180420 | 44 | 182 | 0.0 | 0.0 | 0.07 | 0.25 | 0.25 | 88 | 1013.6 |
| 20260509180337 | 44 | 182 | 0.0 | 0.0 | 0.07 | 0.25 | 0.25 | 88 | 1013.6 |
| 20260509180313 | 46 | 134 | 7.0 | 9.0 | 0.06 | 0.27 | 0.27 | 94 | 1012.2 |
| 20260509174927 | 44 | 182 | 0.0 | 1.0 | 0.07 | 0.23 | 0.23 | 88 | 1013.9 |
| 20260509174839 | 46 | 140 | 6.0 | 8.0 | 0.07 | 0.26 | 0.26 | 94 | 1012.4 |
| 20260509173359 | 46 | 142 | 6.0 | 8.0 | 0.06 | 0.24 | 0.24 | 94 | 1012.4 |
| 20260509173356 | 44 | 247 | 0.0 | 2.0 | 0.07 | 0.21 | 0.21 | 88 | 1014.0 |
| 20260509171915 | 44 | 277 | 0.0 | 2.0 | 0.07 | 0.20 | 0.20 | 88 | 1014.2 |
| 20260509171836 | 46 | 142 | 4.0 | 7.0 | 0.07 | 0.23 | 0.23 | 94 | 1012.6 |
| 20260509170356 | 46 | 149 | 3.0 | 5.0 | 0.07 | 0.21 | 0.21 | 94 | 1012.8 |
| 20260509170345 | 44 | 277 | 1.0 | 2.0 | 0.07 | 0.18 | 0.18 | 88 | 1014.2 |
| 20260509170320 | 46 | 149 | 3.0 | 5.0 | 0.07 | 0.21 | 0.21 | 94 | 1012.8 |
| 20260509164845 | 43 | 277 | 0.0 | 2.0 | 0.06 | 0.16 | 0.16 | 88 | 1014.4 |
| 20260509164815 | 45 | 128 | 0.0 | 0.0 | 0.07 | 0.19 | 0.19 | 95 | 1012.8 |
| 20260509163434 | 43 | 310 | 0.0 | 2.0 | 0.05 | 0.14 | 0.14 | 88 | 1014.4 |
| 20260509163352 | 43 | 310 | 0.0 | 2.0 | 0.05 | 0.14 | 0.14 | 88 | 1014.4 |
| 20260509163314 | 45 | 134 | 0.0 | 1.0 | 0.06 | 0.17 | 0.17 | 95 | 1012.9 |
| 20260509161923 | 45 | 102 | 0.0 | 0.0 | 0.08 | 0.16 | 0.16 | 95 | 1012.9 |
| 20260509161905 | 43 | 311 | 0.0 | 0.0 | 0.06 | 0.13 | 0.13 | 88 | 1014.4 |
| 20260509161841 | 45 | 102 | 0.0 | 0.0 | 0.08 | 0.16 | 0.16 | 95 | 1012.9 |
| 20260509160404 | 43 | 311 | 0.0 | 2.0 | 0.05 | 0.11 | 0.11 | 88 | 1014.6 |
| 20260509160344 | 45 | 111 | 0.0 | 1.0 | 0.07 | 0.14 | 0.14 | 95 | 1013.2 |
| 20260509154932 | 42 | 273 | 1.0 | 3.0 | 0.06 | 0.10 | 0.10 | 88 | 1015.0 |
| 20260509154846 | 45 | 102 | 0.0 | 1.0 | 0.07 | 0.12 | 0.12 | 95 | 1013.3 |
| 20260509153344 | 43 | 295 | 1.0 | 3.0 | 0.06 | 0.09 | 0.09 | 88 | 1015.0 |
| 20260509153324 | 44 | 117 | 0.0 | 2.0 | 0.07 | 0.11 | 0.11 | 95 | 1013.7 |
| 20260509151848 | 44 | 145 | 1.0 | 2.0 | 0.05 | 0.09 | 0.09 | 95 | 1013.8 |
| 20260509151834 | 43 | 280 | 1.0 | 2.0 | 0.04 | 0.07 | 0.07 | 88 | 1015.2 |
| 20260509150410 | 44 | 150 | 0.0 | 2.0 | 0.04 | 0.07 | 0.07 | 95 | 1013.8 |
| 20260509150406 | 42 | 280 | 0.0 | 1.0 | 0.04 | 0.06 | 0.06 | 88 | 1015.4 |
| 20260509144844 | 42 | 280 | 0.0 | 0.0 | 0.02 | 0.04 | 0.04 | 88 | 1015.2 |
| 20260509143414 | 41 | 280 | 0.0 | 1.0 | 0.02 | 0.03 | 0.03 | 87 | 1015.2 |
| 20260509143348 | 44 | 128 | 0.0 | 2.0 | 0.03 | 0.04 | 0.04 | 94 | 1013.7 |
| 20260509141831 | 41 | 288 | 0.0 | 0.0 | 0.02 | 0.03 | 0.03 | 87 | 1015.1 |
| 20260509141825 | 43 | 131 | 0.0 | 2.0 | 0.03 | 0.04 | 0.04 | 93 | 1013.7 |
| 20260509140344 | 41 | 288 | 1.0 | 2.0 | 0.01 | 0.02 | 0.02 | 87 | 1015.2 |
| 20260509140322 | 43 | 149 | 1.0 | 3.0 | 0.03 | 0.03 | 0.03 | 93 | 1013.7 |
| 20260509134905 | 40 | 289 | 0.0 | 4.0 | 0.02 | 0.02 | 0.02 | 86 | 1015.2 |
| 20260509134825 | 43 | 149 | 1.0 | 3.0 | 0.02 | 0.02 | 0.02 | 92 | 1013.7 |
| 20260509133347 | 40 | 288 | 2.0 | 2.0 | 0.01 | 0.01 | 0.01 | 85 | 1015.1 |
| 20260509133324 | 43 | 41 | 0.0 | 2.0 | 0.01 | 0.01 | 0.01 | 91 | 1013.6 |
| 20260509131913 | 43 | 146 | 3.0 | 5.0 | 0.01 | 0.01 | 0.01 | 89 | 1013.4 |
| 20260509131834 | 40 | 288 | 1.0 | 2.0 | 0.01 | 0.01 | 0.01 | 82 | 1015.1 |
| 20260509130334 | 43 | 171 | 0.0 | 4.0 | 0.00 | 0.00 | 0.00 | 90 | 1013.4 |
| 20260509130332 | 39 | 288 | 1.0 | 3.0 | 0.00 | 0.00 | 0.00 | 77 | 1015.0 |
| 20260509124859 | 39 | 309 | 0.0 | 0.0 | 0.00 | 0.00 | 0.00 | 76 | 1014.9 |
| 20260509124833 | 42 | 99 | 0.0 | 0.0 | 0.00 | 0.00 | 0.00 | 90 | 1013.5 |
| 20260509123352 | 44 | 119 | 0.0 | 3.0 | 0.00 | 0.00 | 0.00 | 88 | 1013.6 |
| 20260509123342 | 38 | 309 | 0.0 | 2.0 | 0.00 | 0.00 | 0.00 | 73 | 1015.2 |
| 20260509121853 | 43 | 149 | 3.0 | 6.0 | 0.00 | 0.00 | 0.00 | 80 | 1013.7 |
| 20260509121829 | 39 | 327 | 1.0 | 1.0 | 0.00 | 0.00 | 0.00 | 74 | 1015.2 |
| 20260509120351 | 43 | 148 | 1.0 | 5.0 | 0.00 | 0.00 | 0.00 | 79 | 1013.8 |
| 20260509120330 | 38 | 327 | 1.0 | 3.0 | 0.00 | 0.00 | 0.00 | 73 | 1015.3 |
| 20260509114906 | 38 | 328 | 0.0 | 0.0 | 0.00 | 0.00 | 0.00 | 72 | 1015.3 |
| 20260509114857 | 43 | 144 | 4.0 | 7.0 | 0.00 | 0.00 | 0.00 | 80 | 1013.8 |
| 20260509113433 | 42 | 150 | 6.0 | 8.0 | 0.00 | 0.00 | 0.00 | 82 | 1013.9 |
| 20260509113348 | 37 | 334 | 0.0 | 0.0 | 0.00 | 0.00 | 0.00 | 73 | 1015.4 |
| 20260509111936 | 37 | 347 | 0.0 | 0.0 | 0.00 | 0.00 | 0.00 | 76 | 1015.4 |
| 20260509111854 | 37 | 347 | 0.0 | 0.0 | 0.00 | 0.00 | 0.00 | 76 | 1015.4 |
| 20260509111829 | 42 | 139 | 6.0 | 8.0 | 0.00 | 0.00 | 0.00 | 84 | 1013.8 |
| 20260509110337 | 37 | 347 | 0.0 | 0.0 | 0.00 | 0.00 | 0.00 | 76 | 1015.4 |
| 20260509110327 | 41 | 151 | 4.0 | 8.0 | 0.00 | 0.00 | 0.00 | 86 | 1013.9 |
| 20260509104834 | 36 | 347 | 0.0 | 0.0 | 0.00 | 0.00 | 0.00 | 76 | 1015.5 |
| 20260509104822 | 38 | 297 | 0.0 | 0.0 | 0.00 | 0.00 | 0.00 | 94 | 1014.0 |
| 20260509103408 | 36 | 347 | 0.0 | 1.0 | 0.00 | 0.00 | 0.00 | 74 | 1015.3 |
| 20260509103341 | 37 | 297 | 0.0 | 0.0 | 0.00 | 0.00 | 0.00 | 94 | 1014.0 |
| 20260509101929 | 36 | 297 | 0.0 | 0.0 | 0.00 | 0.00 | 0.00 | 95 | 1013.8 |
| 20260509101829 | 36 | 347 | 0.0 | 0.0 | 0.00 | 0.00 | 0.00 | 74 | 1015.2 |
| 20260509100348 | 35 | 258 | 0.0 | 0.0 | 0.00 | 0.00 | 0.00 | 73 | 1015.2 |
| 20260509100331 | 36 | 297 | 0.0 | 0.0 | 0.00 | 0.00 | 0.00 | 95 | 1013.6 |
| 20260509094920 | 36 | 258 | 0.0 | 0.0 | 0.00 | 0.00 | 0.00 | 73 | 1015.3 |
| 20260509094912 | 35 | 297 | 0.0 | 0.0 | 0.00 | 0.00 | 0.00 | 95 | 1013.8 |
| 20260509093352 | 35 | 297 | 0.0 | 0.0 | 0.00 | 0.00 | 0.00 | 95 | 1013.6 |
| 20260509093329 | 36 | 129 | 1.0 | 1.0 | 0.00 | 0.00 | 0.00 | 73 | 1015.1 |
| 20260509091857 | 35 | 297 | 0.0 | 0.0 | 0.00 | 0.00 | 0.00 | 95 | 1013.7 |
| 20260509091832 | 36 | 129 | 0.0 | 1.0 | 0.00 | 0.00 | 0.00 | 73 | 1015.1 |